FW7007 Weather Reports


time (UTC)temp
F
wind
direction
speed
knots
gust
knots
rain 1hr
in
rain 24hr
in
rain mn
in
humidity
%
barometer
mb
20260505034855 61 97 0.0 0.0 0.00 0.00 0.00 65 1014.3
20260505034351 62 97 0.0 0.0 0.00 0.00 0.00 65 1014.5
20260505033848 62 97 0.0 0.0 0.00 0.00 0.00 66 1014.4
20260505033345 62 97 0.0 0.0 0.00 0.00 0.00 65 1014.4
20260505032843 62 97 0.0 0.0 0.00 0.00 0.00 65 1014.4
20260505032340 62 97 0.0 0.0 0.00 0.00 0.00 65 1014.4
20260505031837 62 97 0.0 0.0 0.00 0.00 0.00 65 1014.5
20260505031333 62 97 0.0 0.0 0.00 0.00 0.00 65 1014.4
20260505030831 62 97 0.0 0.0 0.00 0.00 0.00 64 1014.3
20260505030326 63 96 0.0 0.0 0.00 0.00 0.00 64 1014.6
20260505025822 63 97 0.0 0.0 0.00 0.00 0.00 64 1014.5
20260505025320 63 97 0.0 0.0 0.00 0.00 0.00 63 1014.5
20260505024818 64 97 0.0 0.0 0.00 0.00 0.00 62 1014.4
20260505024315 64 97 0.0 0.0 0.00 0.00 0.00 62 1014.6
20260505023813 64 96 0.0 0.0 0.00 0.00 0.00 62 1014.8
20260505023309 64 96 0.0 0.0 0.00 0.00 0.00 62 1014.4
20260505022807 65 97 0.0 0.0 0.00 0.00 0.00 62 1014.6
20260505022304 65 96 0.0 0.0 0.00 0.00 0.00 61 1014.6
20260505021800 65 97 0.0 0.0 0.00 0.00 0.00 61 1014.6
20260505021257 66 97 0.0 0.9 0.00 0.00 0.00 61 1014.5
20260505020753 66 96 0.0 0.9 0.00 0.00 0.00 60 1014.8
20260505020248 66 102 0.0 0.0 0.00 0.00 0.00 61 1014.6
20260505015746 66 101 0.0 0.0 0.00 0.00 0.00 61 1014.6
20260505015243 66 96 0.0 0.9 0.00 0.00 0.00 62 1014.2
20260505014740 66 96 0.0 0.0 0.00 0.00 0.00 62 1014.3
20260505014237 66 103 0.0 0.0 0.00 0.00 0.00 62 1014.3
20260505013734 66 93 0.0 1.7 0.00 0.00 0.00 63 1014.4
20260505013231 66 93 0.0 0.9 0.00 0.00 0.00 62 1014.3
20260505012729 66 101 0.0 0.0 0.00 0.00 0.00 63 1014.2
20260505012226 66 101 0.0 0.0 0.00 0.00 0.00 64 1014.3
20260505011721 67 100 0.0 0.0 0.00 0.00 0.00 64 1014.3
20260505011219 67 100 0.0 0.0 0.00 0.00 0.00 64 1014.0
20260505010714 67 100 0.0 0.0 0.00 0.00 0.00 63 1014.0
20260505010211 68 101 0.0 0.0 0.00 0.00 0.00 62 1014.1
20260505005707 68 99 0.0 0.0 0.00 0.00 0.00 62 1014.0
20260505005205 68 93 0.0 0.9 0.00 0.00 0.00 62 1014.1
20260505004702 68 97 0.0 0.9 0.00 0.00 0.00 62 1014.0
20260505004158 68 99 0.0 0.0 0.00 0.00 0.00 62 1013.9
20260505003656 69 98 0.0 0.0 0.00 0.00 0.00 61 1013.8
20260505003153 69 99 0.0 0.0 0.00 0.00 0.00 60 1013.6
20260505002649 69 111 0.9 0.9 0.00 0.00 0.00 60 1013.8
20260505002148 69 128 0.9 1.7 0.00 0.00 0.00 60 1013.9
20260505001644 70 98 0.0 0.0 0.00 0.00 0.00 59 1013.9
20260505001142 70 104 0.0 0.9 0.00 0.00 0.00 60 1013.9
20260505000638 70 106 0.0 0.9 0.00 0.00 0.00 59 1013.6
20260505000137 71 97 0.0 0.9 0.00 0.00 0.00 58 1013.9
20260504235632 71 99 0.0 0.9 0.00 0.00 0.00 58 1013.9
20260504235129 71 102 0.9 1.7 0.00 0.00 0.00 57 1013.9
20260504234626 72 107 0.9 0.9 0.00 0.00 0.00 58 1013.6
20260504234124 72 116 0.9 0.9 0.00 0.00 0.00 57 1013.7
20260504233619 72 57 0.9 2.6 0.00 0.00 0.00 55 1013.7
20260504233115 72 101 0.9 0.9 0.00 0.00 0.00 58 1013.8
20260504232613 72 102 0.0 0.9 0.00 0.00 0.00 56 1013.5
20260504232110 72 101 0.0 0.9 0.00 0.00 0.00 57 1013.8
20260504231606 73 90 0.9 1.7 0.00 0.00 0.00 54 1013.6
20260504231102 73 129 0.9 1.7 0.00 0.00 0.00 54 1013.6
20260504230558 73 67 0.9 0.9 0.00 0.00 0.00 53 1013.7
20260504230053 74 72 0.9 1.7 0.00 0.00 0.00 52 1013.6
20260504225549 74 58 1.7 1.7 0.00 0.00 0.00 55 1013.4
20260504225046 74 82 0.9 1.7 0.00 0.00 0.00 56 1013.6
20260504224543 74 75 0.0 0.9 0.00 0.00 0.00 53 1013.3
20260504224040 75 82 0.9 1.7 0.00 0.00 0.00 54 1013.3
20260504223537 75 90 0.0 1.7 0.00 0.00 0.00 56 1013.4
20260504223032 75 98 0.0 0.0 0.00 0.00 0.00 55 1013.3
20260504222530 75 99 0.0 0.9 0.00 0.00 0.00 53 1013.4
20260504222027 75 81 0.9 0.9 0.00 0.00 0.00 51 1013.7
20260504221524 75 92 0.0 0.9 0.00 0.00 0.00 52 1013.6
20260504221021 75 111 0.0 1.7 0.00 0.00 0.00 55 1013.7
20260504220518 75 101 0.0 1.7 0.00 0.00 0.00 52 1013.7
20260504220015 76 111 0.9 1.7 0.00 0.00 0.00 51 1013.6
20260504215511 76 102 0.0 0.9 0.00 0.00 0.00 50 1013.7
20260504215009 77 94 0.9 0.9 0.00 0.00 0.00 52 1013.8
20260504214504 77 93 0.9 0.9 0.00 0.00 0.00 48 1013.7
20260504214001 77 78 0.9 1.7 0.00 0.00 0.00 50 1013.7
20260504213456 77 100 1.7 1.7 0.00 0.00 0.00 46 1013.8
20260504212955 77 84 0.9 1.7 0.00 0.00 0.00 47 1013.7
20260504212450 77 104 0.9 0.9 0.00 0.00 0.00 49 1013.6
20260504211948 77 86 1.7 1.7 0.00 0.00 0.00 47 1013.8
20260504211444 77 95 0.0 1.7 0.00 0.00 0.00 47 1014.1
20260504210942 77 115 0.9 0.9 0.00 0.00 0.00 48 1013.8
20260504210438 78 85 0.0 4.3 0.00 0.00 0.00 48 1013.8
20260504205935 77 96 0.0 0.9 0.00 0.00 0.00 48 1013.8
20260504205433 77 107 0.0 1.7 0.00 0.00 0.00 49 1013.9
20260504204931 77 107 0.9 1.7 0.00 0.00 0.00 46 1014.0
20260504204429 78 91 0.9 4.3 0.00 0.00 0.00 47 1014.0
20260504203928 78 87 0.9 1.7 0.00 0.00 0.00 46 1014.0
20260504203425 78 87 0.0 1.7 0.00 0.00 0.00 48 1014.0
20260504202921 78 64 1.7 1.7 0.00 0.00 0.00 47 1014.3
20260504202418 78 88 0.9 1.7 0.00 0.00 0.00 45 1014.3
20260504201914 78 109 0.9 1.7 0.00 0.00 0.00 47 1014.3
20260504201412 78 103 0.9 0.9 0.00 0.00 0.00 47 1014.3
20260504200909 78 69 0.0 1.7 0.00 0.00 0.00 50 1014.3
20260504200406 78 101 0.0 1.7 0.00 0.00 0.00 49 1014.4
20260504195903 78 90 0.9 5.2 0.00 0.00 0.00 51 1014.5
20260504195358 77 90 0.0 0.9 0.00 0.00 0.00 50 1014.6
20260504194855 77 84 0.9 0.9 0.00 0.00 0.00 50 1014.6
20260504194351 77 108 0.9 1.7 0.00 0.00 0.00 51 1014.7
20260504193847 77 94 0.0 1.7 0.00 0.00 0.00 50 1014.7
20260504193344 77 88 0.9 2.6 0.00 0.00 0.00 50 1014.8
20260504192843 76 156 0.9 1.7 0.00 0.00 0.00 53 1015.0
20260504192341 76 101 0.0 1.7 0.00 0.00 0.00 51 1015.0
20260504191839 77 111 1.7 2.6 0.00 0.00 0.00 50 1015.1
20260504191337 77 106 0.9 1.7 0.00 0.00 0.00 52 1015.3
20260504190832 76 99 0.9 1.7 0.00 0.00 0.00 52 1015.3
20260504190328 75 113 0.9 1.7 0.00 0.00 0.00 52 1015.5
20260504185825 75 146 0.9 1.7 0.00 0.00 0.00 52 1015.4
20260504185322 75 98 0.9 1.7 0.00 0.00 0.00 52 1015.6
20260504184818 75 108 0.0 0.9 0.00 0.00 0.00 54 1015.6
20260504184314 75 94 0.0 1.7 0.00 0.00 0.00 52 1015.5
20260504183809 75 58 1.7 2.6 0.00 0.00 0.00 52 1015.8
20260504183307 75 120 1.7 1.7 0.00 0.00 0.00 52 1015.9
20260504182804 75 76 0.9 2.6 0.00 0.00 0.00 52 1016.1
20260504182301 75 79 0.9 1.7 0.00 0.00 0.00 52 1016.0
20260504181759 76 66 0.9 1.7 0.00 0.00 0.00 52 1016.1
20260504181256 75 93 0.9 2.6 0.00 0.00 0.00 51 1016.3
20260504180755 74 102 0.0 1.7 0.00 0.00 0.00 53 1016.3
20260504180253 74 104 0.0 1.7 0.00 0.00 0.00 52 1016.4
20260504175751 74 63 1.7 2.6 0.00 0.00 0.00 53 1016.3
20260504175247 73 73 0.9 1.7 0.00 0.00 0.00 52 1016.2
20260504174745 74 95 0.9 1.7 0.00 0.00 0.00 52 1016.2
20260504174243 73 87 0.9 0.9 0.00 0.00 0.00 55 1016.4
20260504173739 73 92 0.0 2.6 0.00 0.00 0.00 53 1016.4
20260504173236 73 74 1.7 1.7 0.00 0.00 0.00 53 1016.6
20260504172733 73 85 0.9 1.7 0.00 0.00 0.00 51 1016.6
20260504172229 73 101 0.9 2.6 0.00 0.00 0.00 53 1016.6
20260504171726 72 88 0.9 1.7 0.00 0.00 0.00 54 1016.8
20260504171223 72 74 0.9 2.6 0.00 0.00 0.00 52 1016.8
20260504170720 72 89 1.7 1.7 0.00 0.00 0.00 53 1016.6
20260504170217 71 77 0.9 1.7 0.00 0.00 0.00 53 1016.9
20260504160136 68 93 0.0 0.9 0.00 0.00 0.00 57 1017.9
20260504151103 62 95 0.0 1.7 0.00 0.00 0.00 64 1018.3
20260504150600 62 107 0.0 0.9 0.00 0.00 0.00 64 1018.5
20260504141026 59 89 0.0 1.7 0.00 0.00 0.00 69 1019.4
20260504140523 58 80 0.9 1.7 0.00 0.00 0.00 70 1019.1
20260504130447 53 96 0.0 0.0 0.00 0.00 0.00 82 1019.3
20260504110334 44 94 0.0 0.0 0.00 0.00 0.00 95 1018.2
20260504100251 45 94 0.0 0.0 0.00 0.00 0.00 92 1018.1
20260504081645 47 94 0.0 0.0 0.00 0.00 0.00 90 1018.5
20260504081141 47 94 0.0 0.0 0.00 0.00 0.00 89 1018.5
20260504080638 47 94 0.0 0.0 0.00 0.00 0.00 89 1018.3
20260504080134 47 94 0.0 0.0 0.00 0.00 0.00 89 1018.2
20260504050450 50 94 0.0 0.0 0.00 0.00 0.00 83 1018.6
20260504045947 50 94 0.0 0.0 0.00 0.00 0.00 83 1018.5
20260504045443 50 94 0.0 0.0 0.00 0.00 0.00 83 1018.8
20260504044939 50 94 0.0 0.0 0.00 0.00 0.00 83 1018.7
20260504044437 50 94 0.0 0.0 0.00 0.00 0.00 82 1018.6
20260504043934 50 94 0.0 0.0 0.00 0.00 0.00 82 1018.6
20260504043431 50 94 0.0 0.0 0.00 0.00 0.00 82 1018.6
20260504042929 50 94 0.0 0.0 0.00 0.00 0.00 82 1018.5
20260504042425 50 94 0.0 0.0 0.00 0.00 0.00 82 1018.4
20260504041922 51 94 0.0 0.0 0.00 0.00 0.00 82 1018.5
20260504041418 51 94 0.0 0.0 0.00 0.00 0.00 81 1018.4
20260504040914 51 94 0.0 0.0 0.00 0.00 0.00 81 1018.5
20260504040412 51 94 0.0 0.0 0.00 0.00 0.00 79 1018.4
20260504035908 51 94 0.0 0.0 0.00 0.00 0.00 78 1018.5
20260504035405 51 94 0.0 0.0 0.00 0.00 0.00 78 1018.5